Aérodrome :
LOGIN :

S'inscrire | Disclaimer

   EN    FR    IT 

 










Légende :    VFR   VFR Marginal   IFR   IFR Intensif   IFR Très Intensif
Visi : 
Plafond : 
>= 8 km
>= 3000ft
5 à 8 km
1000 à 3000 ft
1500m à 5 km
500 à 1000 ft
800 à 1500m
200 à 500 ft
< 800m
< 200 ft
Symboles :   Orages  Brouillard  Fortes neiges  Fortes précipitations  Vent > 20 kt
SIGMETs :   Divers  Orages  Givrage  Turbulence  Onde Orograph.  Cendres Volcan.






- Altitude de l'aérodrome : 461 ft
- Code IATA : WIE


ETOU - Wiesbaden Army

DERNIER METAR :
  • 252156Z AUTO 26004KT 9999 FEW022 00/M03 A2990 RMK AO2 SLP136 T10021029 $

METARs EXPIRÉS :
  • 252056Z AUTO 28003KT 9999 CLR 01/M03 A2988 RMK AO2 SLP129 T00061030 52028

TAF AMD TAF ETOU
Valide du 25 à 19h jusqu'au 26 à 19h UTC


251933Z 2519/2619 VRB06KT 9999 SCT100 QNH2954INS
BECMG 2605/2606 26010G15KT 9999 BKN020 620205 QNH2997INS TX01/2519Z TNM01/2603Z



MET'MAP, la Météo Aéronautique d'un coup d'oeil ! - Copyright ORBIFLY Décembre 2007 - Disclaimer

ORBIFLY MET'MAP TEAM :

Programmation & Développement : Alexandra Zaïnal
Sur une idée originale de : Baudouin d'Aumeries
Assistance à la programmation : Marc-Olivier Méhu
Soutien technique & logistique : Manuel Goepfert

Contact : metmap@orbifly.com




SOURCES & CREDITS :

   NOAA